TimeCDT,TemperatureF,Dew PointF,Humidity,Sea Level PressureIn,VisibilityMPH,Wind Direction,Wind SpeedMPH,Gust SpeedMPH,PrecipitationIn,Events,Conditions,WindDirDegrees,DateUTC
12:05 AM,73.4,62.6,69,29.95,10.0,SSW,6.9,-,N/A,,Clear,200,2013-06-15 05:05:00
12:25 AM,73.4,64.4,73,29.95,10.0,South,6.9,-,N/A,,Clear,180,2013-06-15 05:25:00
12:45 AM,73.4,62.6,69,29.95,10.0,South,5.8,-,N/A,,Clear,170,2013-06-15 05:45:00
1:05 AM,73.4,64.4,73,29.95,10.0,South,6.9,-,N/A,,Clear,180,2013-06-15 06:05:00
1:25 AM,73.4,64.4,73,29.95,10.0,South,6.9,-,N/A,,Clear,180,2013-06-15 06:25:00
1:45 AM,73.4,64.4,73,29.96,10.0,South,6.9,-,N/A,,Clear,180,2013-06-15 06:45:00
2:05 AM,73.4,64.4,73,29.95,10.0,Calm,Calm,-,N/A,,Clear,0,2013-06-15 07:05:00
2:25 AM,73.4,62.6,69,29.95,10.0,SW,3.5,-,N/A,,Clear,220,2013-06-15 07:25:00
2:45 AM,71.6,64.4,78,29.95,10.0,SSW,5.8,-,N/A,,Clear,210,2013-06-15 07:45:00
3:05 AM,71.6,64.4,78,29.94,10.0,SSW,5.8,-,N/A,,Clear,200,2013-06-15 08:05:00
3:25 AM,71.6,64.4,78,29.95,10.0,South,8.1,-,N/A,,Clear,190,2013-06-15 08:25:00
3:45 AM,71.6,62.6,73,29.95,10.0,SW,5.8,-,N/A,,Clear,230,2013-06-15 08:45:00
4:05 AM,71.6,62.6,73,29.95,10.0,SW,5.8,-,N/A,,Clear,230,2013-06-15 09:05:00
4:25 AM,71.6,62.6,73,29.95,10.0,WSW,5.8,-,N/A,,Partly Cloudy,240,2013-06-15 09:25:00
4:45 AM,71.6,62.6,73,29.95,10.0,SW,5.8,-,N/A,,Partly Cloudy,230,2013-06-15 09:45:00
5:05 AM,71.6,64.4,78,29.95,10.0,SW,5.8,-,N/A,,Scattered Clouds,220,2013-06-15 10:05:00
5:25 AM,71.6,62.6,73,29.96,10.0,SW,4.6,-,N/A,,Mostly Cloudy,220,2013-06-15 10:25:00
5:45 AM,71.6,62.6,73,29.97,10.0,SW,4.6,-,N/A,,Overcast,230,2013-06-15 10:45:00
6:05 AM,71.6,62.6,73,29.97,10.0,WSW,5.8,-,N/A,,Overcast,240,2013-06-15 11:05:00
6:25 AM,71.6,62.6,73,29.97,10.0,SW,5.8,-,N/A,,Scattered Clouds,230,2013-06-15 11:25:00
6:45 AM,71.6,62.6,73,29.97,10.0,WSW,5.8,-,N/A,,Clear,240,2013-06-15 11:45:00
7:05 AM,71.6,62.6,73,29.97,10.0,SW,4.6,-,N/A,,Clear,230,2013-06-15 12:05:00
7:25 AM,73.4,62.6,69,29.97,10.0,SW,4.6,-,N/A,,Clear,220,2013-06-15 12:25:00
7:45 AM,75.2,62.6,65,29.97,10.0,SW,5.8,-,N/A,,Clear,220,2013-06-15 12:45:00
8:05 AM,75.2,62.6,65,29.98,10.0,SE,6.9,-,N/A,,Clear,140,2013-06-15 13:05:00
8:25 AM,75.2,64.4,69,29.99,10.0,SSE,5.8,-,N/A,Rain,Light Rain,150,2013-06-15 13:25:00
8:45 AM,75.2,64.4,69,29.99,10.0,South,6.9,-,N/A,Rain,Light Rain,180,2013-06-15 13:45:00
9:05 AM,75.2,64.4,69,30.00,10.0,South,10.4,-,N/A,Rain,Light Rain,190,2013-06-15 14:05:00
9:25 AM,73.4,64.4,73,29.99,9.0,SSW,9.2,-,N/A,Rain,Light Rain,200,2013-06-15 14:25:00
9:45 AM,73.4,66.2,78,30.01,10.0,SSW,11.5,-,N/A,Rain,Light Rain,210,2013-06-15 14:45:00
10:05 AM,71.6,66.2,83,30.01,5.0,SSW,13.8,25.3,N/A,Rain,Light Rain,210,2013-06-15 15:05:00
10:25 AM,71.6,66.2,83,30.00,10.0,SSW,12.7,18.4,N/A,,Clear,210,2013-06-15 15:25:00
10:45 AM,73.4,68.0,83,30.01,10.0,SSW,13.8,-,N/A,,Scattered Clouds,210,2013-06-15 15:45:00
11:05 AM,73.4,68.0,83,29.99,10.0,SSW,11.5,-,N/A,,Scattered Clouds,210,2013-06-15 16:05:00
11:25 AM,75.2,66.2,73,30.00,10.0,SSW,11.5,-,N/A,,Mostly Cloudy,200,2013-06-15 16:25:00
11:45 AM,77.0,66.2,69,29.99,10.0,SSW,15.0,18.4,N/A,,Scattered Clouds,200,2013-06-15 16:45:00
12:05 PM,80.6,68.0,65,29.99,10.0,SSW,17.3,27.6,N/A,,Partly Cloudy,210,2013-06-15 17:05:00
12:25 PM,82.4,66.2,58,29.97,10.0,SW,18.4,26.5,N/A,,Clear,220,2013-06-15 17:25:00
12:45 PM,84.2,66.2,55,29.95,10.0,SSW,16.1,20.7,N/A,,Clear,210,2013-06-15 17:45:00
1:05 PM,84.2,64.4,51,29.95,10.0,SSW,17.3,24.2,N/A,,Clear,200,2013-06-15 18:05:00
1:25 PM,84.2,64.4,51,29.95,10.0,SSW,23.0,28.8,N/A,,Clear,200,2013-06-15 18:25:00
1:45 PM,87.8,62.6,43,29.94,10.0,South,25.3,35.7,N/A,,Clear,190,2013-06-15 18:45:00
2:05 PM,87.8,57.2,35,29.94,10.0,SSW,24.2,34.5,N/A,,Clear,200,2013-06-15 19:05:00
2:25 PM,89.6,55.4,31,29.94,10.0,SSW,25.3,36.8,N/A,,Clear,200,2013-06-15 19:25:00
2:45 PM,89.6,57.2,33,29.93,10.0,SSW,21.9,35.7,N/A,,Clear,200,2013-06-15 19:45:00
3:05 PM,89.6,57.2,33,29.92,10.0,SW,25.3,35.7,N/A,,Clear,220,2013-06-15 20:05:00
3:25 PM,89.6,57.2,33,29.92,10.0,South,23.0,32.2,N/A,,Clear,190,2013-06-15 20:25:00
3:45 PM,91.4,59.0,34,29.91,10.0,SSW,25.3,32.2,N/A,,Clear,210,2013-06-15 20:45:00
4:05 PM,91.4,57.2,31,29.90,10.0,SSW,19.6,36.8,N/A,,Clear,200,2013-06-15 21:05:00
4:25 PM,91.4,57.2,31,29.89,10.0,SSW,20.7,29.9,N/A,,Clear,210,2013-06-15 21:25:00
4:45 PM,91.4,57.2,31,29.88,10.0,SW,20.7,28.8,N/A,,Clear,220,2013-06-15 21:45:00
5:05 PM,91.4,57.2,31,29.88,10.0,SSW,16.1,28.8,N/A,,Clear,200,2013-06-15 22:05:00
5:25 PM,91.4,59.0,34,29.88,10.0,South,19.6,28.8,N/A,,Clear,190,2013-06-15 22:25:00
5:45 PM,91.4,57.2,31,29.87,10.0,SSW,16.1,27.6,N/A,,Clear,200,2013-06-15 22:45:00
6:05 PM,91.4,57.2,31,29.87,10.0,South,17.3,26.5,N/A,,Clear,190,2013-06-15 23:05:00
6:25 PM,89.6,57.2,33,29.86,10.0,SSW,20.7,26.5,N/A,,Clear,210,2013-06-15 23:25:00
6:45 PM,89.6,57.2,33,29.86,10.0,SSW,19.6,26.5,N/A,,Clear,200,2013-06-15 23:45:00
7:05 PM,89.6,59.0,36,29.86,10.0,South,18.4,24.2,N/A,,Clear,180,2013-06-16 00:05:00
7:25 PM,87.8,59.0,38,29.86,10.0,South,15.0,23.0,N/A,,Clear,190,2013-06-16 00:25:00
7:45 PM,86.0,59.0,40,29.86,10.0,South,12.7,21.9,N/A,,Clear,190,2013-06-16 00:45:00
8:05 PM,86.0,60.8,43,29.87,10.0,South,12.7,-,N/A,,Clear,190,2013-06-16 01:05:00
8:25 PM,84.2,62.6,48,29.87,10.0,South,11.5,-,N/A,,Clear,190,2013-06-16 01:25:00
8:45 PM,82.4,62.6,51,29.87,10.0,South,11.5,-,N/A,,Clear,190,2013-06-16 01:45:00
9:05 PM,80.6,62.6,54,29.88,10.0,South,10.4,-,N/A,,Clear,180,2013-06-16 02:05:00
9:25 PM,78.8,62.6,57,29.89,10.0,South,9.2,-,N/A,,Clear,170,2013-06-16 02:25:00
9:45 PM,78.8,62.6,57,29.90,10.0,South,10.4,-,N/A,,Clear,180,2013-06-16 02:45:00
10:05 PM,77.0,62.6,61,29.91,10.0,South,10.4,-,N/A,,Clear,170,2013-06-16 03:05:00
10:25 PM,77.0,64.4,65,29.93,10.0,South,12.7,-,N/A,,Clear,180,2013-06-16 03:25:00
10:45 PM,77.0,66.2,69,29.93,10.0,South,13.8,-,N/A,,Clear,170,2013-06-16 03:45:00
11:05 PM,77.0,66.2,69,29.93,10.0,South,13.8,-,N/A,,Clear,170,2013-06-16 04:05:00
11:25 PM,77.0,66.2,69,29.93,10.0,South,16.1,-,N/A,,Clear,180,2013-06-16 04:25:00
11:45 PM,77.0,68.0,74,29.92,10.0,South,16.1,25.3,N/A,,Clear,190,2013-06-16 04:45:00